Home   Weather   Arlington   Past weeks
Flag for USA

Past Weather in Arlington, Texas, USA — Yesterday and Last 2 Weeks

Now
93 °F

Sunny.


Feels Like: 95 °F
Forecast: 95 / 76 °F
Wind: 9 mph from Southeast

Location: Arlington Municipal Airport

Current Time: Jul 21, 2019 at 8:52:26 pm

Latest Report: Jul 21, 2019 at 7:53 pm


Visibility: 10 mi

Pressure: 29.87 "Hg

Humidity: 38%

Dew Point: 64 °F

Location of ArlingtonLocation

Past Weather in Arlington — Graph

°F

Arlington Temperature Yesterday

Maximum temperature yesterday: 97 °F (at 4:53 pm)
Minimum temperature yesterday: 78 °F (at 6:53 am)
Average temperature yesterday: 87 °F

High & Low Weather Summary for the Past Weeks

 TemperatureHumidityPressure
High98 °F (Jul 10, 3:53 pm)94% (Jul 7, 2:53 am)30.06 "Hg (Jul 7, 2:53 am)
Low70 °F (Jul 15, 4:53 am)32% (Jul 11, 4:53 pm)29.79 "Hg (Jul 12, 6:53 pm)
Average85 °F63%29.91 "Hg
* Reported Jul 6 6:30 pm — Jul 21 6:53 pm, Arlington. Weather by CustomWeather, © 2019

Note: Actual official high and low records may vary slightly from our data, if they occured in-between our weather recording intervals... More about our weather records

Advertising

Arlington Weather History for the Previous 24 Hours

Scroll right to see more
 ConditionsComfort  
Time TempWeatherWind HumidityBarometerVisibility
6:53 pm
Sun, Jul 21
96 °FSunny.9 mph34%29.86 "Hg10 mi
5:53 pm97 °FSunny.12 mph32%29.85 "Hg10 mi
4:53 pm97 °FSunny.12 mph32%29.87 "Hg10 mi
3:53 pm97 °FSunny.12 mph35%29.88 "Hg10 mi
2:53 pm96 °FSunny.10 mph35%29.90 "Hg10 mi
1:53 pm94 °FSunny.12 mph37%29.90 "Hg10 mi
12:53 pm92 °FSunny.9 mph44%29.92 "Hg10 mi
11:53 am90 °FSunny.9 mph47%29.93 "Hg10 mi
10:53 am87 °FSunny.9 mph53%29.94 "Hg10 mi
9:53 am85 °FSunny.9 mph61%29.95 "Hg10 mi
8:53 am81 °FSunny.12 mph69%29.94 "Hg10 mi
7:53 am78 °FSunny.8 mph76%29.93 "Hg10 mi
6:53 am77 °FSunny.7 mph79%29.92 "Hg10 mi
5:53 am78 °FClear.8 mph76%29.90 "Hg10 mi
4:53 am79 °FClear.10 mph74%29.89 "Hg10 mi
3:53 am81 °FClear.8 mph69%29.88 "Hg10 mi
2:53 am82 °FClear.9 mph67%29.87 "Hg10 mi
1:53 am82 °FClear.9 mph65%29.86 "Hg10 mi
12:53 am85 °FClear.15 mph59%29.85 "Hg10 mi
11:53 pm
Sat, Jul 20
86 °FClear.12 mph57%29.86 "Hg10 mi
10:53 pm86 °FClear.10 mph57%29.87 "Hg10 mi
9:53 pm88 °FClear.12 mph54%29.85 "Hg10 mi
8:53 pm90 °FClear.13 mph48%29.85 "Hg10 mi
Weather by CustomWeather, © 2019

See weather overview